C/2011 O1 ( LINEAR )

Japanese version
Home page
Updated on February 3, 2013

---------------------------------------------------------------------

* Profile

Discovery Date July 31, 2011
Magnitude 17.6 mag
Discoverer Lincoln Laboratory Near-Earth Asteroid Research project

* Pictures

* Orbital Elements

Epoch 2012 Aug. 21.0 TT = JDT 2456160.5
T 2012 Aug. 18.46986 TT                                 MPC
q   3.8906571            (2000.0)            P               Q
z  +0.0008215      Peri.  232.38244     +0.18297443     +0.14503838
 +/-0.0000011      Node    89.81666     -0.25418689     +0.96240654
e   0.9968040      Incl.   76.49882     -0.94968910     -0.22964653
From 203 observations 2011 May 23-2013 Jan. 13, mean residual 0".4.

* Finding Charts

* Magnitudes Graph

        m1 = 6.5 + 5 log d + 10.0 log r

---------------------------------------------------------------------

The orbital elements are published on M.P.E.C. 2013-A85.
The charts are made with StellaNavigator Ver.8 (AstroArts).
The magnitudes graphs are made with Comet for Windows.

---------------------------------------------------------------------

Copyright(C) Seiichi Yoshida (comet@aerith.net). All rights reserved.